DateTimeUTC,F1_A11,F1_S11,BsB_S11,BsG_S11,BsR_S11,BbsB_S11,BbsG_S11,BbsR_S11,BaB_A11,BaG_A11,BaR_A11,Tu_S11,T_S11,Uu_S11,U_S11,P_S11,T1_A11
2021-09-24T07:00:00Z,00040200,21000000,,,,,,,-000.01,0000.48,0000.14,17.1,24.2,,00.0,0661.5,30.9
2021-09-24T07:01:00Z,00040200,21000000,,,,,,,0000.20,-000.03,-000.13,17.1,24.2,,00.0,0661.5,30.9
2021-09-24T07:02:00Z,00040200,21000000,,,,,,,-000.57,-000.29,-000.17,17.1,24.2,,00.0,0661.6,30.9
2021-09-24T07:03:00Z,00040200,61000000,,,,,,,0000.08,0000.04,-000.05,17.1,24.2,,00.0,0661.6,30.9
2021-09-24T07:04:00Z,00040200,41000000,0000.95,0000.27,0000.15,0000.48,-000.13,0000.06,0000.08,0000.13,0000.16,17.3,24.0,,00.0,0662.5,30.9
2021-09-24T07:05:00Z,00040200,01000000,0000.44,0000.69,0000.26,0000.36,-000.09,0000.05,0000.79,0000.13,0000.12,17.2,24.0,,00.0,0662.5,30.8
2021-09-24T07:06:00Z,00040200,01000000,0000.14,0000.18,0000.02,0000.06,-000.08,-000.13,0000.10,0000.41,0000.14,17.2,23.9,,00.0,0662.5,30.8
2021-09-24T07:07:00Z,00040200,01000000,0000.51,0000.30,-000.01,0000.05,0000.45,-000.05,0000.16,0000.11,0000.06,17.2,23.9,,00.0,0662.5,30.8
2021-09-24T07:08:00Z,00040200,01000000,0000.45,-000.04,0000.27,0000.43,0000.08,0000.00,0000.47,-000.16,0000.28,17.2,23.9,,00.0,0662.5,30.8
2021-09-24T07:09:00Z,00040200,01000000,0000.98,0000.55,0000.13,0000.39,-000.28,-000.27,0000.21,0000.72,0000.55,17.3,23.9,,00.0,0662.5,30.8
2021-09-24T07:10:00Z,00040200,01000000,0000.34,0000.46,0000.31,0000.58,0000.22,0000.06,0000.17,0000.24,0000.45,17.3,23.9,,00.0,0662.5,30.8
2021-09-24T07:11:00Z,00040200,01000000,0000.44,0000.17,0000.14,0000.12,0000.24,-000.13,0000.16,-000.02,-000.13,17.3,23.9,,00.0,0662.6,30.9
2021-09-24T07:12:00Z,00040200,01000000,0000.22,0000.35,0000.18,0000.30,0000.27,-000.31,-000.04,0000.17,-000.29,17.3,23.9,,00.0,0662.6,30.8
2021-09-24T07:13:00Z,00040200,01000000,0000.66,0000.44,-000.02,0000.27,-000.04,-000.41,-000.14,0000.14,-000.08,17.3,23.9,,00.0,0662.6,30.9
2021-09-24T07:14:00Z,00040200,01000000,0000.96,0000.50,0000.01,-000.43,0000.14,-000.20,0000.31,-000.05,0000.83,17.3,23.9,,00.0,0662.5,30.8
2021-09-24T07:15:00Z,00040200,01000000,-000.02,0000.46,0000.11,-000.52,-000.13,-000.05,-000.06,-000.00,-000.29,17.4,23.9,,00.0,0662.6,30.9
2021-09-24T07:16:00Z,00040200,01000000,0000.63,0000.21,0000.33,0000.48,0000.03,-000.01,-000.31,0000.13,-000.11,17.4,23.9,,00.0,0662.6,30.9
2021-09-24T07:17:00Z,00040200,01000000,0000.62,0000.84,-000.02,0000.51,0000.30,-000.27,0002.74,0002.31,0001.72,17.4,23.9,,00.0,0662.7,30.9
2021-09-24T07:18:00Z,00040200,01000000,0000.72,0000.25,0000.22,-000.20,-000.18,-000.10,0005.33,0004.50,0003.70,17.4,23.9,,00.0,0662.6,30.9
2021-09-24T07:19:00Z,00040200,01000000,0000.85,0000.84,0000.24,0000.41,0000.05,0000.07,0006.04,0005.89,0004.45,17.3,23.9,,00.0,0662.6,30.8
2021-09-24T07:20:00Z,00040200,01000000,0001.03,0000.59,0000.26,-000.09,0000.15,0000.15,0008.63,0007.85,0005.83,17.3,23.9,,00.0,0662.6,30.8
2021-09-24T07:21:00Z,00040200,01000000,0001.03,0000.64,0000.26,0000.90,0000.01,0000.02,0015.07,0013.43,0010.75,17.2,23.8,,00.0,0662.6,30.8
2021-09-24T07:22:00Z,00040200,01000000,0000.92,0000.83,0000.37,0000.46,0000.07,0000.21,0014.99,0013.58,0010.79,17.2,23.8,,00.0,0662.6,30.8
2021-09-24T07:23:00Z,00040200,01000000,0001.20,0000.77,0000.11,0000.22,0000.04,0000.11,0015.06,0013.82,0010.39,17.2,23.8,,00.0,0662.6,30.8
2021-09-24T07:24:00Z,00040200,01000000,0000.54,0000.32,-000.00,0000.40,-000.01,-000.13,0003.27,0002.88,0002.56,17.3,23.8,,00.0,0662.6,30.8
2021-09-24T07:25:00Z,00040200,01000000,-000.11,0000.16,-000.15,0000.10,-000.02,-000.27,0000.40,0000.82,0000.29,17.3,23.8,,00.0,0662.6,30.8
2021-09-24T07:26:00Z,00040200,01000000,0000.53,0000.23,-000.13,0000.11,-000.09,0000.24,0000.24,0000.10,0000.27,17.3,23.8,,00.0,0662.6,30.8
2021-09-24T07:27:00Z,00040200,01000000,0000.39,0000.23,0000.16,0000.15,-000.27,-000.22,0000.35,0000.05,0000.18,17.3,23.9,,00.0,0662.7,30.8
2021-09-24T07:28:00Z,00040200,01000000,0000.09,0000.15,0000.06,-000.03,0000.32,-000.18,0000.20,0000.32,0000.46,17.3,23.9,,00.0,0662.6,30.8
2021-09-24T07:29:00Z,00040200,01000000,0001.30,0000.58,0000.26,0000.09,0000.07,-000.10,0005.48,0005.04,0003.51,17.4,23.9,,00.0,0662.7,30.8
2021-09-24T07:30:00Z,00040200,01000000,0000.64,0001.16,0000.36,0000.10,0000.03,-000.07,0010.09,0009.31,0007.48,17.4,23.9,,00.0,0662.8,30.8
2021-09-24T07:31:00Z,00040200,01000000,0000.15,0000.15,-000.01,-000.14,0000.23,-000.15,0000.11,-000.33,-000.58,17.4,23.9,,00.0,0662.8,30.9
2021-09-24T07:32:00Z,00040200,01000000,-000.08,0000.61,0000.07,-000.09,0000.02,-000.03,0001.47,0001.35,0001.58,17.4,23.9,,00.0,0662.8,30.9
2021-09-24T07:33:00Z,00040200,01000000,0000.19,0000.57,-000.08,-000.50,0000.15,-000.33,0000.59,0001.00,0000.59,17.4,23.9,,00.0,0662.8,30.9
2021-09-24T07:34:00Z,00040200,01000000,0000.61,0000.35,0000.24,0000.21,0000.16,-000.10,0004.24,0003.52,0002.62,17.4,23.9,,00.0,0662.8,30.9
2021-09-24T07:35:00Z,00040200,01000000,0000.92,0000.52,0000.34,0000.15,0000.26,0000.14,0010.84,0010.11,0007.61,17.4,23.9,,00.0,0662.8,30.9
2021-09-24T07:36:00Z,00040200,01000000,0000.07,0000.27,0000.09,0000.47,0000.05,-000.34,0000.66,0000.56,0000.71,17.3,23.9,,00.0,0662.8,30.8
2021-09-24T07:37:00Z,00040200,01000000,0000.33,0000.35,-000.32,-000.10,0000.05,-000.38,0000.23,0000.12,0000.01,17.3,23.8,,00.0,0662.8,30.8
2021-09-24T07:38:00Z,00040200,01000000,0000.13,0000.53,0000.06,-000.41,0000.13,0000.05,0000.03,-000.16,0000.04,17.3,23.8,,00.0,0662.8,30.8
2021-09-24T07:39:00Z,00040200,01000000,0000.08,0000.48,0000.07,0000.08,0000.10,-000.26,-000.64,0000.12,0000.02,17.3,23.9,,00.0,0662.8,30.9
2021-09-24T07:40:00Z,00040200,01000000,0000.26,0000.18,0000.10,-000.40,0000.36,-000.18,-000.11,-000.55,-000.24,17.4,23.8,,00.0,0662.8,30.9
2021-09-24T07:41:00Z,00040200,01000000,0000.32,0000.27,-000.08,-000.39,-000.12,-000.09,0000.49,0000.59,-000.07,17.4,23.9,,00.0,0662.8,30.9
2021-09-24T07:42:00Z,00040200,01000000,0000.39,0000.24,-000.23,0000.07,0000.22,-000.18,-000.03,-000.00,0000.03,17.4,23.9,,00.0,0662.8,30.9
2021-09-24T07:43:00Z,00040200,01000000,0000.54,0000.05,-000.12,-000.25,0000.13,-000.00,-000.22,-000.18,0000.30,17.4,23.9,,00.0,0662.8,30.9
2021-09-24T07:44:00Z,00040200,01000000,0000.87,0000.60,-000.23,-000.34,-000.02,-000.36,0000.46,0000.11,-000.01,17.5,23.9,,00.0,0662.8,30.9
2021-09-24T07:45:00Z,00040200,01000000,0000.30,0000.02,-000.17,0000.22,0000.08,-000.07,0000.11,0000.28,-000.26,17.4,23.9,,00.0,0662.8,30.9
2021-09-24T07:46:00Z,00040200,01000000,-000.43,0000.29,-000.18,0000.03,0000.26,-000.20,-000.24,-000.07,0000.13,17.5,23.9,,00.0,0662.8,30.9
2021-09-24T07:47:00Z,00040200,01000000,0000.03,0000.27,-000.10,0000.19,-000.11,-000.06,-000.08,0000.08,-000.14,17.5,23.9,,00.0,0662.8,30.9
2021-09-24T07:48:00Z,00040200,01000000,0000.62,0000.47,0000.01,-000.43,-000.06,-000.07,0000.28,-000.22,0000.43,17.5,23.9,,00.0,0662.8,30.9
2021-09-24T07:49:00Z,00040200,01000000,0001.00,0000.45,-000.08,-000.32,0000.23,-000.04,-000.27,0000.00,-000.31,17.4,23.9,,00.0,0662.9,30.9
2021-09-24T07:50:00Z,00040200,01000000,0000.83,0000.55,0000.18,0000.10,0000.20,-000.20,-000.08,-000.36,-000.00,17.3,23.9,,00.0,0662.9,30.9
2021-09-24T07:51:00Z,00040200,01000000,0001.01,0000.76,-000.03,0000.34,-000.04,-000.21,0000.15,0000.42,0000.11,17.3,23.8,,00.0,0662.9,30.8
2021-09-24T07:52:00Z,00040200,01000000,0000.24,0000.44,-000.10,0000.43,0000.15,-000.07,0000.15,0000.09,-000.00,17.3,23.8,,00.0,0662.9,30.8
2021-09-24T07:53:00Z,00040200,01000000,0000.71,0000.82,-000.14,0000.08,-000.25,-000.43,0000.06,-000.08,0000.28,17.3,23.8,,00.0,0662.9,30.8
2021-09-24T07:54:00Z,00040200,01000000,0000.16,0000.60,0000.06,0000.41,0000.06,-000.25,0000.32,0000.23,0000.16,17.3,23.8,,00.0,0662.9,30.9
2021-09-24T07:55:00Z,00040200,01000000,-000.04,0000.65,-000.02,0000.53,-000.02,-000.27,0000.10,0000.32,0000.35,17.3,23.8,,00.0,0662.9,30.8
2021-09-24T07:56:00Z,00040200,01000000,-000.09,0000.17,0000.02,0000.67,-000.20,-000.25,0000.05,0000.30,-000.04,17.4,23.8,,00.0,0662.9,30.8
2021-09-24T07:57:00Z,00040200,41000000,,,,,,,0001.91,0001.37,0000.92,17.4,23.9,,00.0,0663.0,30.9
2021-09-24T07:58:00Z,00040200,61000000,,,,,,,-000.61,-000.34,-000.50,17.0,24.0,,00.0,0662.0,30.9
2021-09-24T07:59:00Z,00040200,21000000,,,,,,,-000.43,-000.58,0000.04,17.0,24.1,,00.0,0662.0,30.9
